TimeEST,TemperatureF,Dew PointF,Humidity,Sea Level PressureIn,VisibilityMPH,Wind Direction,Wind SpeedMPH,Gust SpeedMPH,PrecipitationIn,Events,Conditions,WindDirDegrees,DateUTC
12:07 AM,46.4,41.0,81,29.78,10.0,South,12.7,21.9,N/A,,Mostly Cloudy,180,2013-11-07 05:07:00
12:36 AM,46.4,41.0,81,29.77,10.0,South,10.4,16.1,N/A,,Mostly Cloudy,190,2013-11-07 05:36:00
12:43 AM,46.4,41.0,81,29.75,10.0,South,10.4,-,N/A,,Overcast,180,2013-11-07 05:43:00
12:54 AM,46.9,41.0,80,29.79,10.0,SSW,10.4,17.3,0.00,Rain,Light Rain,200,2013-11-07 05:54:00
1:30 AM,46.4,42.8,87,29.74,10.0,South,10.4,21.9,0.00,Rain,Light Rain,190,2013-11-07 06:30:00
1:54 AM,46.9,42.1,83,29.74,10.0,South,11.5,-,0.00,,Overcast,190,2013-11-07 06:54:00
2:54 AM,46.9,43.0,86,29.71,10.0,South,11.5,-,0.02,Rain,Light Rain,180,2013-11-07 07:54:00
3:54 AM,46.9,44.1,90,29.68,10.0,South,11.5,-,0.03,Rain,Light Rain,190,2013-11-07 08:54:00
4:54 AM,46.9,44.1,90,29.67,10.0,South,10.4,-,0.02,Rain,Light Rain,190,2013-11-07 09:54:00
5:54 AM,46.9,45.0,93,29.65,7.0,South,6.9,-,0.03,Rain,Light Rain,190,2013-11-07 10:54:00
6:44 AM,46.4,44.6,93,29.61,10.0,South,6.9,-,0.02,,Overcast,190,2013-11-07 11:44:00
6:54 AM,46.9,45.0,93,29.63,10.0,South,8.1,-,0.02,,Overcast,190,2013-11-07 11:54:00
7:33 AM,48.2,44.6,87,29.59,10.0,South,9.2,-,0.00,,Overcast,190,2013-11-07 12:33:00
7:54 AM,48.0,46.0,93,29.60,10.0,South,10.4,-,0.00,,Scattered Clouds,180,2013-11-07 12:54:00
8:54 AM,48.9,46.0,90,29.59,10.0,South,8.1,16.1,N/A,,Scattered Clouds,190,2013-11-07 13:54:00
9:54 AM,50.0,46.9,89,29.59,10.0,SSW,8.1,20.7,0.00,,Overcast,200,2013-11-07 14:54:00
10:12 AM,50.0,46.4,87,29.57,10.0,SSW,9.2,17.3,0.00,Rain,Light Rain,210,2013-11-07 15:12:00
10:54 AM,50.0,48.0,93,29.58,7.0,SSW,11.5,17.3,0.02,Rain,Light Rain,210,2013-11-07 15:54:00
11:03 AM,50.0,46.4,87,29.55,10.0,SSW,11.5,-,0.00,Rain,Light Rain,210,2013-11-07 16:03:00
11:13 AM,50.0,48.2,94,29.55,10.0,SSW,13.8,20.7,0.00,Rain,Light Rain,210,2013-11-07 16:13:00
11:54 AM,50.0,48.0,93,29.55,7.0,SSW,9.2,-,0.03,Rain,Light Rain,210,2013-11-07 16:54:00
12:04 PM,50.0,48.2,94,29.53,10.0,SSW,11.5,-,0.01,Rain,Light Rain,210,2013-11-07 17:04:00
12:54 PM,51.1,48.0,89,29.55,10.0,WSW,12.7,18.4,0.02,Rain,Light Rain,240,2013-11-07 17:54:00
1:23 PM,51.8,48.2,88,29.54,4.0,WSW,10.4,-,0.01,Rain,Light Rain,240,2013-11-07 18:23:00
1:34 PM,50.0,48.2,94,29.55,2.5,WSW,8.1,-,0.03,Rain,Rain,250,2013-11-07 18:34:00
1:47 PM,50.0,46.4,87,29.54,9.0,WSW,8.1,-,0.07,Rain,Light Rain,250,2013-11-07 18:47:00
1:54 PM,50.0,48.0,93,29.56,10.0,SW,6.9,-,0.07,Rain,Light Rain,230,2013-11-07 18:54:00
2:54 PM,48.9,45.0,86,29.56,10.0,WSW,9.2,-,0.00,,Overcast,250,2013-11-07 19:54:00
3:42 PM,44.6,39.2,81,29.54,10.0,North,12.7,-,0.00,Rain,Light Rain,350,2013-11-07 20:42:00
3:54 PM,43.0,39.9,89,29.59,10.0,North,11.5,-,0.00,Rain,Light Rain,360,2013-11-07 20:54:00
4:54 PM,43.0,39.0,86,29.62,10.0,Calm,Calm,-,0.00,,Overcast,0,2013-11-07 21:54:00
5:54 PM,42.1,37.9,85,29.62,8.0,WNW,3.5,-,0.01,Rain,Light Rain,290,2013-11-07 22:54:00
6:25 PM,42.8,37.4,81,29.60,10.0,WNW,9.2,-,0.00,,Overcast,300,2013-11-07 23:25:00
6:52 PM,39.2,35.6,87,29.62,9.0,NNW,13.8,-,0.00,Rain,Light Rain,330,2013-11-07 23:52:00
6:54 PM,39.9,36.0,86,29.65,9.0,NNW,13.8,-,0.00,Rain,Light Rain,330,2013-11-07 23:54:00
7:29 PM,39.2,35.6,87,29.64,10.0,WNW,4.6,-,0.00,,Overcast,300,2013-11-08 00:29:00
7:54 PM,39.0,36.0,89,29.66,10.0,NW,4.6,-,0.00,,Overcast,320,2013-11-08 00:54:00
8:12 PM,39.2,33.8,81,29.64,10.0,NNW,6.9,-,N/A,,Overcast,330,2013-11-08 01:12:00
8:51 PM,37.4,32.0,81,29.64,10.0,North,5.8,-,N/A,,Overcast,350,2013-11-08 01:51:00
8:54 PM,37.9,32.0,79,29.67,10.0,North,4.6,-,N/A,,Overcast,350,2013-11-08 01:54:00
9:54 PM,37.0,32.0,82,29.67,10.0,NW,3.5,-,N/A,,Overcast,310,2013-11-08 02:54:00
10:54 PM,36.0,28.9,76,29.65,10.0,NW,4.6,-,N/A,,Overcast,310,2013-11-08 03:54:00
11:54 PM,35.1,28.9,78,29.63,10.0,WNW,5.8,-,N/A,,Overcast,300,2013-11-08 04:54:00